User: anonymous   Login
Location: Mentone
(34.5413°N, 85.5351°W)
Time: 19:18:30
(UTC-05:00)
Language:

ADEOS Rocket - Orbit

View from above orbital plane
View from above orbital plane
View from above satellite
View from above satellite

Ground track
Ground track

The orbit data is extracted from the following two-line orbital elements,

1 24279U 96046C   17179.45895660 -.00000026 +00000-0 +15707-4 0  9990
2 24279 098.7533 122.0239 0298983 259.9909 210.3849 13.47085386025483
Epoch (UTC): 28 June 2017 11:00:53
Eccentricity: 0.0298983
inclination: 98.7533°
perigee height: 860 km
apogee height: 1306 km
right ascension of ascending node: 122.0239°
argument of perigee: 259.9909°
revolutions per day: 13.47085386
mean anomaly at epoch: 210.3849°
orbit number at epoch: 2548

The dashed part of the orbit path shows where the satellite is in the earth's shadow,  

DLR